User: anonymous   Login
Location: Chandolas
(44.4033°N, 4.2533°E)
Time: 14:31:39
(UTC+00:00)
Language:

Cosmos 372 Rocket - Orbit

View from above orbital plane
View from above orbital plane
View from above satellite
View from above satellite

Ground track
Ground track

The orbit data is extracted from the following two-line orbital elements,

1  4589U 70086B   20017.46037105 +.00000073 +00000-0 +30412-4 0  9997
2  4589 074.0604 011.4814 0021071 345.0676 014.9855 14.41575537582841
Epoch (UTC): 17 January 2020 11:02:56
Eccentricity: 0.0021071
inclination: 74.0604°
perigee height: 738 km
apogee height: 768 km
right ascension of ascending node: 11.4814°
argument of perigee: 345.0676°
revolutions per day: 14.41575537
mean anomaly at epoch: 14.9855°
orbit number at epoch: 58284

The dashed part of the orbit path shows where the satellite is in the earth's shadow,  

DLR